TAP3961 LPPR-LPPT

Flight info

Callsign TAP3961
Flight time 0h 47m
Altitude 27000
Route MANIK DCT ABRIL DCT XAMAX
Aircraft A21N/M-SDE2E3FGHIRWXY/LB1

Departure

Time 2026-05-08 07:11
Airport Francisco de Sá Carneiro Airport (LPPR)

Arrival

Time 2026-05-08 07:58
Airport Lisbon Humberto Delgado Airport (LPPT)
Time Latitude Longitude Altitude Speed Heading
2026-05-08 06:45 41.23830 -8.67388 257 ft 0 kts 78°
2026-05-08 07:00 41.23829 -8.67392 257 ft 1 kts 78°
2026-05-08 07:00 41.23826 -8.67411 256 ft 2 kts 78°
2026-05-08 07:00 41.23824 -8.67430 255 ft 1 kts 78°
2026-05-08 07:00 41.23822 -8.67443 254 ft 2 kts 65°
2026-05-08 07:01 41.23811 -8.67458 253 ft 2 kts 27°
2026-05-08 07:01 41.23797 -8.67463 253 ft 1 kts 354°
2026-05-08 07:01 41.23792 -8.67461 253 ft 1 kts 346°
2026-05-08 07:01 41.23789 -8.67460 253 ft 0 kts 348°
2026-05-08 07:02 41.23789 -8.67461 253 ft 0 kts 348°
2026-05-08 07:03 41.23794 -8.67462 253 ft 2 kts 348°
2026-05-08 07:03 41.23819 -8.67469 252 ft 5 kts 349°
2026-05-08 07:03 41.23867 -8.67480 251 ft 8 kts 349°
2026-05-08 07:04 41.23936 -8.67497 248 ft 11 kts 351°
2026-05-08 07:04 41.24030 -8.67518 245 ft 15 kts 347°
2026-05-08 07:04 41.24141 -8.67556 240 ft 17 kts 346°
2026-05-08 07:04 41.24253 -8.67627 234 ft 17 kts 316°
2026-05-08 07:05 41.24356 -8.67721 227 ft 19 kts 346°
2026-05-08 07:05 41.24485 -8.67755 223 ft 18 kts 349°
2026-05-08 07:05 41.24614 -8.67789 219 ft 19 kts 347°
2026-05-08 07:05 41.24737 -8.67827 215 ft 16 kts 340°
2026-05-08 07:06 41.24825 -8.67936 211 ft 18 kts 305°
2026-05-08 07:06 41.24886 -8.68054 208 ft 14 kts 303°
2026-05-08 07:06 41.24957 -8.68154 206 ft 16 kts 332°
2026-05-08 07:06 41.25071 -8.68195 203 ft 17 kts 348°
2026-05-08 07:07 41.25198 -8.68227 198 ft 20 kts 349°
2026-05-08 07:07 41.25339 -8.68265 195 ft 21 kts 348°
2026-05-08 07:07 41.25487 -8.68305 191 ft 22 kts 349°
2026-05-08 07:07 41.25645 -8.68345 185 ft 22 kts 347°
2026-05-08 07:08 41.25806 -8.68391 179 ft 24 kts 348°
2026-05-08 07:08 41.25961 -8.68432 173 ft 21 kts 349°
2026-05-08 07:08 41.26098 -8.68467 167 ft 18 kts 347°
2026-05-08 07:08 41.26194 -8.68534 164 ft 12 kts 321°
2026-05-08 07:09 41.26257 -8.68597 161 ft 11 kts 337°
2026-05-08 07:09 41.26305 -8.68537 160 ft 12 kts 110°
2026-05-08 07:09 41.26239 -8.68499 162 ft 8 kts 173°
2026-05-08 07:09 41.26213 -8.68494 163 ft 0 kts 169°
2026-05-08 07:10 41.26120 -8.68468 166 ft 45 kts 169°
2026-05-08 07:10 41.25576 -8.68327 188 ft 112 kts 168°
2026-05-08 07:10 41.24622 -8.68076 213 ft 166 kts 168°
2026-05-08 07:10 41.23392 -8.67762 586 ft 184 kts 167°
2026-05-08 07:11 41.22147 -8.67446 1325 ft 183 kts 167°
2026-05-08 07:11 41.20946 -8.67134 2166 ft 176 kts 167°
2026-05-08 07:11 41.19723 -8.66804 2637 ft 186 kts 168°
2026-05-08 07:11 41.18413 -8.66458 2914 ft 200 kts 167°
2026-05-08 07:12 41.16993 -8.66069 3153 ft 219 kts 168°
2026-05-08 07:12 41.15443 -8.65653 3467 ft 237 kts 168°
2026-05-08 07:12 41.13759 -8.65208 3857 ft 252 kts 168°
2026-05-08 07:12 41.12028 -8.64755 4513 ft 256 kts 168°
2026-05-08 07:13 41.10289 -8.64298 5241 ft 257 kts 169°
2026-05-08 07:13 41.08540 -8.63860 5926 ft 260 kts 172°
2026-05-08 07:13 41.06737 -8.63594 6588 ft 264 kts 177°
2026-05-08 07:13 41.04847 -8.63482 7298 ft 267 kts 179°
2026-05-08 07:14 41.02988 -8.63392 7991 ft 270 kts 179°
2026-05-08 07:14 41.01114 -8.63300 8678 ft 274 kts 179°
2026-05-08 07:14 40.99184 -8.63201 9376 ft 278 kts 179°
2026-05-08 07:14 40.97212 -8.63097 10066 ft 281 kts 178°
2026-05-08 07:15 40.95203 -8.62991 10513 ft 294 kts 178°
2026-05-08 07:15 40.93086 -8.62877 10814 ft 311 kts 178°
2026-05-08 07:15 40.90823 -8.62754 11118 ft 327 kts 178°
2026-05-08 07:15 40.88474 -8.62625 11623 ft 335 kts 178°
2026-05-08 07:16 40.86055 -8.62494 12295 ft 338 kts 178°
2026-05-08 07:16 40.83642 -8.62364 12944 ft 341 kts 178°
2026-05-08 07:16 40.81202 -8.62236 13572 ft 344 kts 179°
2026-05-08 07:16 40.78736 -8.62106 14191 ft 347 kts 179°
2026-05-08 07:17 40.76274 -8.61977 14790 ft 350 kts 179°
2026-05-08 07:17 40.73763 -8.61844 15383 ft 353 kts 179°
2026-05-08 07:17 40.71213 -8.61710 15966 ft 356 kts 179°
2026-05-08 07:17 40.68661 -8.61531 16531 ft 359 kts 176°
2026-05-08 07:18 40.66068 -8.61222 17094 ft 362 kts 175°
2026-05-08 07:18 40.63461 -8.60903 17636 ft 365 kts 176°
2026-05-08 07:18 40.60834 -8.60582 18165 ft 367 kts 176°
2026-05-08 07:18 40.58243 -8.60266 18671 ft 370 kts 176°
2026-05-08 07:19 40.55595 -8.59945 19173 ft 373 kts 176°
2026-05-08 07:19 40.52952 -8.59625 19661 ft 375 kts 176°
2026-05-08 07:19 40.50323 -8.59308 20134 ft 378 kts 176°
2026-05-08 07:19 40.47656 -8.58987 20605 ft 380 kts 176°
2026-05-08 07:20 40.44989 -8.58666 21138 ft 381 kts 176°
2026-05-08 07:20 40.42294 -8.58341 21754 ft 379 kts 176°
2026-05-08 07:20 40.39646 -8.58022 22308 ft 378 kts 176°
2026-05-08 07:20 40.36941 -8.57693 22408 ft 377 kts 176°
2026-05-08 07:21 40.34307 -8.57371 22284 ft 372 kts 176°
2026-05-08 07:21 40.31714 -8.57055 21757 ft 371 kts 176°
2026-05-08 07:21 40.29159 -8.56745 21501 ft 366 kts 176°
2026-05-08 07:21 40.26599 -8.56437 21249 ft 366 kts 176°
2026-05-08 07:22 40.24022 -8.56126 20995 ft 367 kts 176°
2026-05-08 07:22 40.21464 -8.55818 20743 ft 367 kts 176°
2026-05-08 07:22 40.18907 -8.55510 20491 ft 367 kts 176°
2026-05-08 07:22 40.16389 -8.55207 20090 ft 366 kts 176°
2026-05-08 07:23 40.13836 -8.54900 19852 ft 367 kts 176°
2026-05-08 07:23 40.11236 -8.54589 19846 ft 368 kts 176°
2026-05-08 07:23 40.08627 -8.54275 19847 ft 369 kts 176°
2026-05-08 07:23 40.06063 -8.53968 19846 ft 366 kts 176°
2026-05-08 07:24 40.03519 -8.53662 19690 ft 366 kts 176°
2026-05-08 07:24 40.00964 -8.53400 19437 ft 364 kts 177°
2026-05-08 07:24 39.98407 -8.53188 19183 ft 362 kts 178°
2026-05-08 07:24 39.95848 -8.52984 18928 ft 361 kts 178°
2026-05-08 07:25 39.93331 -8.52782 18676 ft 359 kts 178°
2026-05-08 07:25 39.90830 -8.52579 18424 ft 357 kts 177°
2026-05-08 07:25 39.85837 -8.52171 17918 ft 355 kts 177°
2026-05-08 07:26 39.83358 -8.51967 17764 ft 353 kts 177°
2026-05-08 07:26 39.80867 -8.51762 17765 ft 354 kts 177°
2026-05-08 07:26 39.78386 -8.51567 17763 ft 353 kts 180°
2026-05-08 07:26 39.76020 -8.51854 17746 ft 335 kts 194°
2026-05-08 07:27 39.73891 -8.52864 17739 ft 317 kts 208°
2026-05-08 07:27 39.71994 -8.54283 17744 ft 313 kts 211°
2026-05-08 07:27 39.70147 -8.55756 17745 ft 313 kts 212°
2026-05-08 07:27 39.68304 -8.57232 17745 ft 313 kts 212°
2026-05-08 07:28 39.66444 -8.58714 17746 ft 313 kts 212°
2026-05-08 07:28 39.64594 -8.60181 17746 ft 313 kts 211°
2026-05-08 07:28 39.62730 -8.61652 17518 ft 312 kts 211°
2026-05-08 07:28 39.60867 -8.63120 17266 ft 311 kts 211°
2026-05-08 07:29 39.58986 -8.64599 17010 ft 310 kts 211°
2026-05-08 07:29 39.57091 -8.66088 16752 ft 308 kts 211°
2026-05-08 07:29 39.55198 -8.67575 16493 ft 307 kts 211°
2026-05-08 07:29 39.53295 -8.69067 16232 ft 306 kts 211°
2026-05-08 07:30 39.51435 -8.70526 15976 ft 305 kts 211°
2026-05-08 07:30 39.49544 -8.72008 15714 ft 304 kts 211°
2026-05-08 07:30 39.47700 -8.73451 15458 ft 303 kts 211°
2026-05-08 07:30 39.45853 -8.74896 15201 ft 302 kts 211°
2026-05-08 07:31 39.43996 -8.76347 14942 ft 300 kts 211°
2026-05-08 07:31 39.42154 -8.77833 14676 ft 299 kts 217°
2026-05-08 07:31 39.40677 -8.79883 14402 ft 298 kts 238°
2026-05-08 07:31 39.39892 -8.82436 14141 ft 298 kts 259°
2026-05-08 07:32 39.39752 -8.85235 13885 ft 298 kts 269°
2026-05-08 07:32 39.39776 -8.88011 13626 ft 297 kts 270°
2026-05-08 07:32 39.39811 -8.90756 13368 ft 296 kts 270°
2026-05-08 07:32 39.39838 -8.93467 13113 ft 295 kts 269°
2026-05-08 07:33 39.39857 -8.96195 12855 ft 293 kts 269°
2026-05-08 07:33 39.39871 -8.98891 12599 ft 292 kts 269°
2026-05-08 07:33 39.39882 -9.01633 12337 ft 291 kts 269°
2026-05-08 07:33 39.39891 -9.04338 12078 ft 290 kts 269°
2026-05-08 07:34 39.39898 -9.07026 11819 ft 289 kts 269°
2026-05-08 07:34 39.39904 -9.09651 11566 ft 288 kts 269°
2026-05-08 07:34 39.39910 -9.12244 11314 ft 287 kts 269°
2026-05-08 07:34 39.39915 -9.14871 11059 ft 286 kts 269°
2026-05-08 07:35 39.39919 -9.17528 10800 ft 285 kts 269°
2026-05-08 07:35 39.39923 -9.20167 10541 ft 284 kts 269°
2026-05-08 07:35 39.39926 -9.22853 10278 ft 283 kts 269°
2026-05-08 07:35 39.39929 -9.25478 10020 ft 282 kts 269°
2026-05-08 07:36 39.39932 -9.28129 9791 ft 281 kts 269°
2026-05-08 07:36 39.39933 -9.30740 9663 ft 281 kts 269°
2026-05-08 07:36 39.39933 -9.33346 9541 ft 280 kts 269°
2026-05-08 07:36 39.39933 -9.35882 9342 ft 271 kts 269°
2026-05-08 07:37 39.39934 -9.38339 9210 ft 260 kts 269°
2026-05-08 07:37 39.39720 -9.40678 9065 ft 255 kts 249°
2026-05-08 07:37 39.38764 -9.42651 8936 ft 254 kts 223°
2026-05-08 07:37 39.37264 -9.43865 8806 ft 254 kts 198°
2026-05-08 07:38 39.35495 -9.44181 8684 ft 254 kts 181°
2026-05-08 07:38 39.33699 -9.44155 8556 ft 254 kts 180°
2026-05-08 07:38 39.31926 -9.44107 8430 ft 253 kts 180°
2026-05-08 07:38 39.30123 -9.44071 8302 ft 253 kts 180°
2026-05-08 07:39 39.28348 -9.44047 8176 ft 252 kts 180°
2026-05-08 07:39 39.26579 -9.44030 8050 ft 252 kts 180°
2026-05-08 07:39 39.24820 -9.44017 7926 ft 251 kts 180°
2026-05-08 07:39 39.23048 -9.44007 7909 ft 251 kts 180°
2026-05-08 07:40 39.21301 -9.43997 7905 ft 251 kts 180°
2026-05-08 07:40 39.19507 -9.43985 7903 ft 251 kts 180°
2026-05-08 07:40 39.17743 -9.43965 7902 ft 251 kts 177°
2026-05-08 07:40 39.16061 -9.43379 7888 ft 253 kts 150°
2026-05-08 07:41 39.14780 -9.41800 7891 ft 257 kts 122°
2026-05-08 07:41 39.14227 -9.39652 7893 ft 260 kts 96°
2026-05-08 07:41 39.14195 -9.37303 7902 ft 260 kts 90°
2026-05-08 07:41 39.14229 -9.34972 7902 ft 260 kts 90°
2026-05-08 07:42 39.14257 -9.32665 7897 ft 253 kts 91°
2026-05-08 07:42 39.14271 -9.30423 7900 ft 251 kts 91°
2026-05-08 07:42 39.14278 -9.28170 7900 ft 251 kts 89°
2026-05-08 07:42 39.14592 -9.25954 7894 ft 253 kts 69°
2026-05-08 07:43 39.15424 -9.23988 7901 ft 254 kts 57°
2026-05-08 07:43 39.16434 -9.22060 7901 ft 254 kts 56°
2026-05-08 07:43 39.17440 -9.20182 7901 ft 254 kts 56°
2026-05-08 07:43 39.18430 -9.18313 7901 ft 255 kts 56°
2026-05-08 07:44 39.19365 -9.16374 7899 ft 255 kts 65°
2026-05-08 07:44 39.19970 -9.14208 7902 ft 254 kts 77°
2026-05-08 07:44 39.20333 -9.11974 7903 ft 254 kts 81°
2026-05-08 07:44 39.20646 -9.09740 7902 ft 254 kts 81°
2026-05-08 07:45 39.20966 -9.07475 7902 ft 254 kts 81°
2026-05-08 07:45 39.21289 -9.05237 7902 ft 254 kts 82°
2026-05-08 07:45 39.21387 -9.02946 7901 ft 252 kts 96°
2026-05-08 07:45 39.21131 -9.00722 7903 ft 252 kts 103°
2026-05-08 07:46 39.20764 -8.98497 7903 ft 251 kts 104°
2026-05-08 07:46 39.20390 -8.96307 7902 ft 251 kts 104°
2026-05-08 07:46 39.20026 -8.94124 7902 ft 251 kts 103°
2026-05-08 07:46 39.19606 -8.91928 7900 ft 250 kts 111°
2026-05-08 07:47 39.18857 -8.89901 7903 ft 248 kts 123°
2026-05-08 07:47 39.17879 -8.87993 7904 ft 248 kts 126°
2026-05-08 07:47 39.16865 -8.86121 7903 ft 247 kts 127°
2026-05-08 07:47 39.15883 -8.84305 7902 ft 247 kts 126°
2026-05-08 07:48 39.14907 -8.82482 7902 ft 247 kts 127°
2026-05-08 07:48 39.13784 -8.80800 7902 ft 245 kts 140°
2026-05-08 07:48 39.12449 -8.79487 7904 ft 243 kts 147°
2026-05-08 07:48 39.11017 -8.78284 7903 ft 243 kts 149°
2026-05-08 07:49 39.09564 -8.77195 7893 ft 242 kts 161°
2026-05-08 07:49 39.07901 -8.76957 7893 ft 240 kts 191°
2026-05-08 07:49 39.06404 -8.77816 7895 ft 240 kts 220°
2026-05-08 07:49 39.05419 -8.79537 7893 ft 242 kts 249°
2026-05-08 07:50 39.05082 -8.81669 7895 ft 243 kts 261°
2026-05-08 07:50 39.04892 -8.83827 7623 ft 245 kts 262°
2026-05-08 07:50 39.04706 -8.85997 7316 ft 242 kts 262°
2026-05-08 07:50 39.04514 -8.88128 7023 ft 240 kts 262°
2026-05-08 07:51 39.04314 -8.90261 6735 ft 239 kts 261°
2026-05-08 07:51 39.04107 -8.92386 6449 ft 238 kts 261°
2026-05-08 07:51 39.03900 -8.94490 6167 ft 237 kts 261°
2026-05-08 07:51 39.03692 -8.96585 5887 ft 236 kts 261°
2026-05-08 07:52 39.03482 -8.98687 5607 ft 235 kts 261°
2026-05-08 07:52 39.03276 -9.00743 5333 ft 234 kts 261°
2026-05-08 07:52 39.03066 -9.02838 5093 ft 232 kts 260°
2026-05-08 07:52 39.02558 -9.04764 4878 ft 229 kts 230°
2026-05-08 07:53 39.01242 -9.05878 4732 ft 229 kts 191°
2026-05-08 07:53 38.99690 -9.05658 4577 ft 230 kts 158°
2026-05-08 07:53 38.98253 -9.04795 4399 ft 229 kts 154°
2026-05-08 07:53 38.96813 -9.03918 4006 ft 235 kts 161°
2026-05-08 07:54 38.95213 -9.03796 3597 ft 235 kts 195°
2026-05-08 07:54 38.93745 -9.04732 3305 ft 233 kts 211°
2026-05-08 07:54 38.92383 -9.05784 3019 ft 227 kts 208°
2026-05-08 07:54 38.90989 -9.06689 2743 ft 219 kts 204°
2026-05-08 07:55 38.89633 -9.07456 2482 ft 208 kts 202°
2026-05-08 07:55 38.88307 -9.08155 2239 ft 207 kts 201°
2026-05-08 07:55 38.86998 -9.08844 1930 ft 199 kts 202°
2026-05-08 07:55 38.85765 -9.09503 1728 ft 184 kts 202°
2026-05-08 07:56 38.84618 -9.10120 1567 ft 168 kts 202°
2026-05-08 07:56 38.83559 -9.10689 1409 ft 164 kts 202°
2026-05-08 07:56 38.82539 -9.11234 1114 ft 154 kts 202°
2026-05-08 07:56 38.81582 -9.11743 859 ft 144 kts 202°
2026-05-08 07:57 38.80663 -9.12232 688 ft 144 kts 202°
2026-05-08 07:57 38.79742 -9.12729 492 ft 140 kts 202°
2026-05-08 07:57 38.78859 -9.13202 383 ft 129 kts 201°
2026-05-08 07:57 38.78247 -9.13533 383 ft 68 kts 203°
2026-05-08 07:58 38.77905 -9.13726 383 ft 39 kts 201°
2026-05-08 07:58 38.77663 -9.13845 383 ft 31 kts 200°
2026-05-08 07:58 38.77467 -9.13896 383 ft 24 kts 181°
2026-05-08 07:58 38.77325 -9.13889 383 ft 20 kts 178°
2026-05-08 07:59 38.77189 -9.13882 383 ft 19 kts 178°
2026-05-08 07:59 38.77080 -9.13892 383 ft 13 kts 173°
2026-05-08 07:59 38.76989 -9.13869 383 ft 9 kts 168°
2026-05-08 07:59 38.76950 -9.13833 383 ft 7 kts 98°
2026-05-08 08:00 38.76956 -9.13771 383 ft 5 kts 78°
2026-05-08 08:00 38.76958 -9.13758 383 ft 0 kts 77°